N9ISN Weather Reports


time (UTC)temp
C
wind
direction
speed
KPH
gust
KPH
rain 1hr
cm
rain 24hr
cm
rain mn
cm
humidity
%
barometer
mb
20260503030124 12 213 6.4 12.9 0.00 0.00 0.00 52 1010.5
20260503024554 12 244 4.8 12.9 0.00 0.00 0.00 51 1010.7
20260503023053 12 226 3.2 8.0 0.00 0.00 0.00 52 1010.6
20260503021559 12 228 4.8 9.7 0.00 0.00 0.00 52 1010.7
20260503020051 12 207 8.0 12.9 0.00 0.00 0.00 52 1010.5
20260503014602 12 215 9.7 12.9 0.00 0.00 0.00 51 1010.7
20260503013052 13 219 4.8 9.7 0.00 0.00 0.00 50 1010.8
20260503011554 13 212 4.8 8.0 0.00 0.00 0.00 50 1010.8
20260503010100 13 221 4.8 8.0 0.00 0.00 0.00 47 1010.9
20260503004546 14 220 4.8 9.7 0.00 0.00 0.00 44 1010.9
20260503003055 14 221 8.0 14.5 0.00 0.00 0.00 44 1011.0
20260503001543 15 217 6.4 14.5 0.00 0.00 0.00 44 1011.1
20260503000042 15 238 8.0 14.5 0.00 0.00 0.00 42 1011.3
20260502234541 15 225 4.8 14.5 0.00 0.00 0.00 40 1011.5
20260502233041 15 248 8.0 25.7 0.00 0.00 0.00 41 1011.5
20260502231538 15 234 9.7 25.7 0.00 0.00 0.00 42 1011.8
20260502230036 15 252 11.3 29.0 0.00 0.00 0.00 41 1012.0
20260502224535 15 261 9.7 24.1 0.00 0.00 0.00 40 1012.1
20260502223035 16 303 16.1 27.4 0.00 0.00 0.00 38 1012.2
20260502221533 16 207 16.1 27.4 0.00 0.00 0.00 39 1012.1
20260502220032 15 232 12.9 29.0 0.00 0.00 0.00 40 1012.4
20260502214530 16 252 14.5 29.0 0.00 0.00 0.00 40 1012.4
20260502213039 16 253 12.9 30.6 0.00 0.00 0.00 40 1012.7
20260502211530 16 252 16.1 29.0 0.00 0.00 0.00 37 1012.9
20260502210026 16 260 14.5 22.5 0.00 0.00 0.00 39 1013.0
20260502204524 16 210 16.1 25.7 0.00 0.00 0.00 39 1013.1
20260502203023 16 249 8.0 29.0 0.00 0.00 0.00 38 1013.4
20260502201525 15 255 14.5 24.1 0.00 0.00 0.00 39 1013.7
20260502200019 16 282 17.7 29.0 0.00 0.00 0.00 36 1013.9
20260502194516 15 232 8.0 24.1 0.00 0.00 0.00 35 1014.2
20260502193014 15 291 11.3 29.0 0.00 0.00 0.00 39 1014.3
20260502191511 15 310 14.5 27.4 0.00 0.00 0.00 36 1014.5
20260502190011 15 251 8.0 25.7 0.00 0.00 0.00 39 1014.7
20260502184508 15 275 12.9 20.9 0.00 0.00 0.00 37 1014.9
20260502183004 14 258 16.1 30.6 0.00 0.00 0.00 37 1015.2
20260502181502 15 316 20.9 35.4 0.00 0.00 0.00 39 1015.4
20260502163048 13 303 8.0 24.1 0.00 0.00 0.00 40 1016.6
20260502161545 13 320 14.5 25.7 0.00 0.00 0.00 40 1016.6
20260502151538 12 271 12.9 20.9 0.00 0.00 0.00 43 1017.1
20260502130104 2 208 4.8 8.0 0.00 0.00 0.00 82 1017.7
20260502123058 1 213 6.4 9.7 0.00 0.00 0.00 80 1017.6
20260502121559 0 219 6.4 9.7 0.00 0.00 0.00 81 1017.6
20260502114558 -1 242 3.2 4.8 0.00 0.00 0.00 82 1017.5
20260502113054 -1 232 3.2 6.4 0.00 0.00 0.00 80 1017.5
20260502111551 0 198 1.6 3.2 0.00 0.00 0.00 78 1017.4
20260502110056 0 198 0.0 1.6 0.00 0.00 0.00 77 1017.5
20260502104545 0 198 0.0 1.6 0.00 0.00 0.00 76 1017.5
20260502103044 0 198 0.0 1.6 0.00 0.00 0.00 76 1017.5
20260502101545 0 198 0.0 3.2 0.00 0.00 0.00 75 1017.5
20260502091533 1 149 1.6 8.0 0.00 0.00 0.00 68 1017.8
20260502071523 1 85 3.2 4.8 0.00 0.00 0.00 65 1018.1
20260502070024 1 85 1.6 3.2 0.00 0.00 0.00 65 1018.3
20260502064538 1 85 1.6 4.8 0.00 0.00 0.00 64 1018.4
20260502063023 2 85 1.6 3.2 0.00 0.00 0.00 66 1018.5
20260502061517 2 85 3.2 4.8 0.00 0.00 0.00 65 1018.5
20260502060015 2 85 1.6 4.8 0.00 0.00 0.00 65 1018.4
20260502054514 2 85 3.2 6.4 0.00 0.00 0.00 65 1018.3
20260502053012 2 85 3.2 6.4 0.00 0.00 0.00 63 1018.4
20260502051509 3 85 3.2 9.7 0.00 0.00 0.00 62 1018.4
20260502050014 3 75 3.2 6.4 0.00 0.00 0.00 63 1018.4
20260502044508 3 67 4.8 6.4 0.00 0.00 0.00 63 1018.3
20260502043054 3 67 4.8 6.4 0.00 0.00 0.00 63 1018.3
20260502041552 3 67 3.2 6.4 0.00 0.00 0.00 63 1018.3
20260502034554 3 67 0.0 1.6 0.00 0.00 0.00 58 1018.2
20260502033050 4 67 0.0 3.2 0.00 0.00 0.00 56 1018.2
20260502031552 4 67 0.0 0.0 0.00 0.00 0.00 54 1018.2